Weather History for HESH - February, 2014

Change the Weather History Date:

Sunday, February 9, 2014

  Actual Average Record
Temperature  
Mean Temperature 68 °F -  
Max Temperature 80 °F - - ()
Min Temperature 57 °F - - ()
Cooling Degree Days 4    
Growing Degree Days 18 (Base 50)    
Moisture  
Dew Point 34 °F    
Average Humidity 31    
Maximum Humidity 48    
Minimum Humidity 15    
Precipitation  
Precipitation 0.00 in - - ()
Sea Level Pressure  
Sea Level Pressure 30.10 in    
Wind  
Wind Speed 7 mph ()    
Max Wind Speed 13 mph    
Max Gust Speed -    
T = Trace of Precipitation, MM = Missing Value Source: Averaged Metar Reports

Daily Weather History Graph

Daily Weather History Graph

Search for Another Location

Airport or City:

Trip Planner

Search our weather history database for the weather conditions in past years. The results will help you decide how hot, cold, wet, or windy it might be!

Date:

Astronomy

Feb. 09, 2014 Rise Set
Actual Time 6:24 AM EET 5:28 PM EET
Civil Twilight 6:00 AM EET 5:53 PM EET
Nautical Twilight 5:32 AM EET 6:20 PM EET
Astronomical Twilight 5:05 AM EET 6:48 PM EET
Moon 1:01 PM EET (2/9) 2:04 AM EET (2/9)
Length of Visible Light 11h 52m
Length of Day
11h 04m
Waxing Gibbous, 74% of the Moon is Illuminated
Feb 9
Waxing Gibbous
Feb 15
Full
Feb 22
Last Quarter
Mar 1
New
Mar 8
First Quarter

Hourly Weather History & Observations

Time (EET) Temp. Dew Point Humidity Pressure Visibility Wind Dir Wind Speed Gust Speed Precip Events Conditions
12:00 AM 62.6 °F 28.4 °F 27% 30.09 in - North 12.7 mph - N/A   Clear
1:00 AM 62.6 °F 28.4 °F 27% 30.09 in - North 11.5 mph - N/A   Clear
2:00 AM 60.8 °F 28.4 °F 29% 30.09 in - North 10.4 mph - N/A   Clear
3:00 AM 60.8 °F 30.2 °F 31% 30.09 in - North 10.4 mph - N/A   Clear
4:00 AM 59.0 °F 32.0 °F 36% 30.09 in - North 9.2 mph - N/A   Clear
5:00 AM 59.0 °F 33.8 °F 39% 30.09 in - North 9.2 mph - N/A   Clear
6:00 AM 59.0 °F 32.0 °F 36% 30.12 in - North 6.9 mph - N/A   Clear
7:00 AM 57.2 °F 30.2 °F 36% 30.12 in - North 4.6 mph - N/A   Clear
8:00 AM 62.6 °F 33.8 °F 34% 30.15 in - North 6.9 mph - N/A   Clear
9:00 AM 69.8 °F 33.8 °F 27% 30.15 in - North 12.7 mph - N/A   Clear
10:00 AM 69.8 °F 35.6 °F 28% 30.15 in - NNE 12.7 mph - N/A   Clear
11:00 AM 75.2 °F 35.6 °F 24% 30.15 in - NNE 10.4 mph - N/A   Clear
12:00 PM 77.0 °F 33.8 °F 21% 30.12 in - NNE 6.9 mph - N/A   Clear
1:00 PM 80.6 °F 35.6 °F 20% 30.09 in - NE 5.8 mph - N/A   Clear
2:00 PM 80.6 °F 30.2 °F 16% 30.06 in - East 5.8 mph - N/A   Clear
3:00 PM 80.6 °F 28.4 °F 15% 30.06 in - Variable 3.5 mph - N/A   Clear
4:00 PM 78.8 °F 30.2 °F 17% 30.06 in - SE 4.6 mph - N/A   Clear
5:00 PM 73.4 °F 37.4 °F 27% 30.06 in - South 5.8 mph - N/A   Clear
6:00 PM 69.8 °F 42.8 °F 38% 30.06 in - South 5.8 mph - N/A   Clear
7:00 PM 68.0 °F 44.6 °F 43% 30.06 in - Variable 1.2 mph - N/A   Clear
8:00 PM 62.6 °F 42.8 °F 48% 30.06 in - NW 4.6 mph - N/A   Clear
9:00 PM 62.6 °F 39.2 °F 42% 30.09 in - Variable 3.5 mph - N/A   Clear
10:00 PM 59.0 °F 39.2 °F 48% 30.09 in - North 5.8 mph - N/A   Clear
11:00 PM 59.0 °F 37.4 °F 45% 30.09 in - NNW 2.3 mph - N/A   Clear